This is the latest recevied weather packets stored in our database for station/object KD5BIG-13. If no packets are shown the sender has not sent any weather packets the latest 10 day(s).
| Time | Temp. | Humidity | Pressure | Rain* | Wind** | Luminosity | Snow |
|---|---|---|---|---|---|---|---|
| 1777761411 | 20.56° C | 39% | 1021.7 hPa | 0 mm | - | 46 W/m² | - |
| 1777761109 | 21.11° C | 40% | 1021.5 hPa | 0 mm | - | 46 W/m² | - |
| 1777760806 | 21.11° C | 43% | 1021.5 hPa | 0 mm | - | 47 W/m² | - |
| 1777760502 | 21.11° C | 40% | 1021.4 hPa | 0 mm | - | 48 W/m² | - |
| 1777760198 | 21.11° C | 42% | 1021.4 hPa | 0 mm | - | 49 W/m² | - |
| 1777759895 | 21.11° C | 40% | 1021.4 hPa | 0 mm | - | 50 W/m² | - |
| 1777759592 | 21.11° C | 41% | 1021.2 hPa | 0 mm | - | 52 W/m² | - |
| 1777759288 | 21.11° C | 41% | 1021.4 hPa | 0 mm | - | 52 W/m² | - |
| 1777758985 | 21.11° C | 41% | 1021.3 hPa | 0 mm | - | 53 W/m² | - |
| 1777758682 | 21.11° C | 39% | 1021.3 hPa | 0 mm | - | 54 W/m² | - |
| 1777758379 | 21.11° C | 39% | 1021.4 hPa | 0 mm | - | 54 W/m² | - |
| 1777758076 | 21.11° C | 39% | 1021.4 hPa | 0 mm | - | 54 W/m² | - |
| 1777757774 | 21.11° C | 42% | 1021.4 hPa | 0 mm | - | 58 W/m² | - |
| 1777757471 | 21.11° C | 38% | 1021.2 hPa | 0 mm | - | 57 W/m² | - |
| 1777757170 | 21.67° C | 39% | 1021 hPa | 0 mm | - | 61 W/m² | - |
| 1777756868 | 21.67° C | 38% | 1021.2 hPa | 0 mm | - | 64 W/m² | - |
| 1777756562 | 21.67° C | 39% | 1021.3 hPa | 0 mm | - | 520 W/m² | - |
| 1777756260 | 21.67° C | 40% | 1021.3 hPa | 0 mm | - | 588 W/m² | - |
| 1777755957 | 21.67° C | 39% | 1021.4 hPa | 0 mm | - | 627 W/m² | - |
| 1777755654 | 21.67° C | 39% | 1021.4 hPa | 0 mm | - | 676 W/m² | - |
| 1777755350 | 21.67° C | 40% | 1021.5 hPa | 0 mm | - | 700 W/m² | - |
| 1777755048 | 21.67° C | 40% | 1021.7 hPa | 0 mm | - | 718 W/m² | - |
| 1777754744 | 22.22° C | 38% | 1021.7 hPa | 0 mm | - | 737 W/m² | - |
| 1777754442 | 21.67° C | 43% | 1021.7 hPa | 0 mm | - | 760 W/m² | - |
| 1777754139 | 21.67° C | 39% | 1021.8 hPa | 0 mm | - | 781 W/m² | - |
* Rain latest hour (hover to see other rain measurements)
** Current wind speed in m/s (hover to see current wind gust speed)